User: anonymous   Login
Location: Newark
(47.9297°N, 19.1367°E)
Time: 03:49:03
(UTC+00:00)
Language:

FO-29 - Orbit

View from above orbital plane
View from above orbital plane
View from above satellite
View from above satellite

Ground track
Ground track

The orbit data is extracted from the following two-line orbital elements,

1 24278U 96046B   20330.73443244 -.00000039  00000-0 -35088-6 0  9991
2 24278  98.5888  59.4999 0349562 317.4097  40.0411 13.53100474198945
Epoch (UTC): 25 November 2020 17:37:34
Eccentricity: 0.0349562
inclination: 98.5888°
perigee height: 801 km
apogee height: 1321 km
right ascension of ascending node: 59.4999°
argument of perigee: 317.4097°
revolutions per day: 13.53100474
mean anomaly at epoch: 40.0411°
orbit number at epoch: 19894

The dashed part of the orbit path shows where the satellite is in the earth's shadow,  

DLR